CAPE
0 0 0 0 0 0 0 0 11 101 275 400 523 573 604 534 391 355 381 182 73 75 5 5 0 0 0 0 0 0 0 0 0 3 5 16 11 22 15 4 2 3 1
0 0 0 0 0 0 0 15 160 347 410 533 566 616 623 552 376 376 238 137 181 26 7 0 0 0 0 0 0 0 0 0 0 2 5 8 2 3 8 1 3 2 2
0 0 0 0 1 28 151 241 391 412 484 607 689 846 737 561 511 280 223 120 49 19 5 0 0 0 0 0 0 0 0 0 0 1 7 4 8 3 2 1 6 4 3
3 7 51 159 230 349 435 538 558 694 751 776 873 741 587 350 240 189 126 49 6 2 0 0 0 0 0 0 0 0 0 0 2 5 6 6 6 3 4 2 2 4 5
381 517 566 572 579 729 716 734 788 870 873 752 619 629 449 318 184 123 0 0 0 0 0 0 0 0 0 0 0 0 0 2 2 6 3 6 5 4 3 5 7 5 6
909 962 993 929 1069 962 795 781 767 564 556 473 451 430 328 0 0 0 0 0 0 0 0 0 0 0 0 0 0 0 0 2 1 3 3 1 2 3 4 4 5 2 7
1153 1038 1103 1208 1034 981 748 573 360 313 369 190 38 13 0 0 0 1 0 0 0 0 0 0 0 0 0 0 0 0 0 0 0 0 14 3 0 1 3 11 5 4 6
1083 989 874 815 773 564 437 265 101 7 0 0 0 0 1 1 1 1 0 0 0 0 0 0 0 0 0 0 0 0 0 0 0 0 1 1 0 0 0 9 2 3 1
706 602 429 308 275 229 147 34 0 0 0 0 0 0 1 2 1 1 0 0 0 0 0 0 0 0 1 1 0 0 2 2 1 0 0 0 0 0 0 1 5 0 3
503 300 215 156 179 112 6 0 0 0 1 1 0 1 0 1 1 2 0 1 0 2 3 3 0 0 2 0 2 0 2 3 2 1 1 0 0 0 0 6 3 1 1
269 119 76 60 31 0 0 0 0 1 0 0 1 3 1 1 0 1 0 0 1 0 1 1 1 2 1 0 0 1 1 2 1 2 1 1 1 0 0 3 5 2 3
72 40 9 0 5 0 0 0 0 1 1 1 2 2 3 2 1 1 0 0 0 0 0 0 0 2 2 1 0 1 0 0 2 4 2 2 1 2 0 0 0 0 0
47 8 0 0 0 0 1 1 1 2 1 1 1 3 3 1 1 1 2 0 0 0 0 1 1 2 2 1 2 2 0 1 3 2 2 2 2 0 0 0 0 0 0
0 0 0 0 0 3 0 0 2 1 2 2 4 6 2 1 1 2 1 0 1 0 0 0 1 0 0 0 0 0 0 1 1 2 2 1 1 0 1 0 0 0 0
5 0 0 0 0 0 0 0 0 1 0 0 0 1 1 2 1 0 0 1 1 0 1 1 1 1 1 1 1 1 1 1 1 1 1 2 1 1 1 0 0 0 0
7 4 1 0 1 1 0 0 1 1 0 0 0 0 0 0 0 0 0 1 0 0 0 1 1 1 1 1 1 2 1 0 1 1 1 2 1 0 0 0 0 0 0
0 0 0 0 1 1 0 0 0 1 1 2 0 0 0 1 2 2 2 2 0 0 1 1 1 2 1 1 1 0 1 0 0 0 1 1 0 0 0 1 0 0 0
0 0 0 0 1 0 0 0 0 1 0 1 1 0 2 2 2 2 1 0 0 0 0 1 1 3 2 1 0 0 0 0 3 1 0 0 0 0 0 0 0 0 0
0 0 0 1 1 1 1 0 3 2 2 1 0 0 0 1 2 1 0 0 0 0 0 0 0 0 0 0 0 0 0 0 0 0 0 0 0 0 0 0 0 0 0
0 0 0 3 1 0 1 1 1 2 3 2 1 1 1 0 0 0 0 0 0 0 0 0 0 0 0 0 0 0 0 0 0 0 0 0 0 0 0 0 0 0 0
0 1 0 0 0 1 1 2 1 2 2 1 1 0 0 0 2 1 2 1 2 1 1 2 1 0 0 1 0 0 0 0 0 0 0 0 2 0 10 0 0 7 7
1 2 3 0 0 2 2 3 2 1 1 1 2 0 0 0 0 0 2 4 2 1 2 2 2 2 1 0 0 0 4 0 0 0 1 22 21 19 13 28 22 18 21
1 3 2 0 0 0 2 2 1 1 2 2 2 1 0 1 1 0 0 0 1 0 0 0 0 0 1 1 1 1 1 1 1 2 1 4 5 10 20 18 11 6 1
0 0 1 0 1 1 3 3 2 0 1 0 0 0 0 0 0 0 0 0 0 0 0 0 0 0 0 0 0 0 0 0 0 0 0 1 1 0 0 0 1 0 0
0 1 0 0 2 1 0 0 0 0 0 0 0 0 0 0 0 0 0 0 0 0 0 0 0 0 0 0 0 0 0 0 0 0 0 0 0 0 0 0 0 0 0
0 0 0 0 0 0 0 0 0 0 0 0 0 0 0 0 0 0 0 0 0 0 0 0 0 0 0 0 0 0 0 0 0 0 0 0 0 0 0 0 0 0 0
CIN
0 0 0 0 0 0 0 0 -562 -697 -560 -440 -363 -291 -227 -221 -260 -263 -232 -299 -341 -329 -423 -361 0 0 0 0 0 0 0 0 0 0 -7 -21 -40 -31 -19 0 0 0 0
0 0 0 0 0 0 0 -686 -633 -507 -447 -359 -310 -241 -185 -208 -251 -236 -253 -280 -243 -324 -475 -6 0 0 0 0 0 0 0 0 0 0 0 0 0 -2 -9 0 0 0 0
0 0 0 0 -170 -752 -647 -538 -476 -435 -379 -288 -224 -145 -159 -184 -174 -244 -250 -266 -290 -353 -448 0 0 0 0 0 0 0 0 0 0 0 0 -1 0 0 0 0 0 0 0
-374 -366 -547 -628 -612 -565 -491 -396 -357 -284 -247 -203 -137 -158 -185 -218 -246 -245 -249 -269 -395 -206 0 0 0 0 0 0 0 0 0 0 0 -2 0 0 0 0 0 0 0 0 0
-391 -433 -424 -462 -447 -395 -349 -295 -243 -182 -159 -164 -184 -153 -183 -207 -230 -243 0 0 0 0 0 0 0 0 0 0 0 0 0 0 0 -99 0 0 0 -2 0 0 0 -2 0
-263 -292 -291 -295 -252 -263 -252 -219 -192 -239 -211 -211 -198 -186 -198 0 0 0 0 0 0 0 0 0 0 0 0 0 0 0 0 -63 0 -69 0 0 0 0 0 0 0 0 -1
-170 -231 -249 -181 -191 -184 -200 -240 -308 -295 -241 -308 -264 -291 0 0 0 0 0 0 0 0 0 0 0 0 0 0 0 0 0 0 0 -13 -76 -59 0 0 0 0 -1 0 -1
-115 -220 -232 -219 -193 -213 -235 -312 -422 -286 0 0 0 0 0 0 0 0 0 0 0 0 0 0 0 0 0 0 0 0 0 0 0 0 -38 -23 -3 0 -5 -1 -4 0 0
-153 -253 -312 -325 -281 -285 -339 -461 0 0 0 0 0 0 0 0 0 0 0 0 0 0 0 0 0 0 0 0 0 0 0 0 0 0 0 0 0 0 0 -14 -7 0 0
-161 -226 -290 -322 -286 -285 -422 0 0 0 0 0 0 0 0 0 0 0 0 0 0 0 0 0 0 0 0 0 0 0 0 0 0 0 0 0 0 0 0 -12 0 0 -1
-182 -243 -254 -324 -309 0 0 0 0 0 0 0 0 0 0 0 0 0 0 0 0 0 0 0 0 0 0 0 0 0 0 0 0 0 0 0 0 0 0 -19 -16 -10 -8
-197 -223 -375 -20 -316 0 0 0 0 0 0 0 0 0 0 0 0 0 0 0 0 0 0 0 0 0 0 0 0 0 0 0 0 0 0 0 0 0 0 -8 -5 0 0
-113 -244 0 -28 0 0 0 0 0 0 0 0 0 0 0 0 0 0 0 0 0 0 0 0 0 0 0 0 0 0 0 0 0 0 0 0 0 0 0 0 0 0 0
-6 -18 0 0 -15 -131 -56 0 0 0 0 0 0 0 0 0 0 0 0 0 0 0 0 0 0 0 0 0 0 0 0 0 0 0 0 0 0 0 0 0 0 0 0
-63 0 0 -8 0 0 0 -7 0 0 0 0 0 -4 0 0 0 0 0 0 0 0 0 0 0 0 0 0 0 0 0 0 0 0 0 0 0 0 0 0 0 0 0
-130 -129 -127 0 0 0 0 0 0 0 -1 0 0 -1 0 0 0 0 0 0 0 0 0 0 0 0 0 0 0 0 0 0 0 0 0 0 0 0 0 0 0 0 0
0 0 0 0 0 0 0 0 0 0 0 0 0 0 0 0 0 0 0 0 0 0 0 0 0 0 0 0 0 0 0 0 0 0 0 0 0 0 0 0 0 0 0
0 0 0 0 0 0 0 0 0 0 0 0 0 0 0 0 0 0 0 0 0 0 0 0 0 0 0 0 0 0 0 0 0 0 0 0 0 0 0 0 0 0 0
0 0 0 0 0 0 0 0 0 0 0 0 0 0 0 0 0 0 0 0 0 0 0 0 0 0 0 0 0 0 0 0 0 0 0 0 0 0 0 0 0 0 0
0 0 0 0 0 0 0 0 0 0 0 0 0 0 0 0 0 0 0 0 0 0 0 0 0 0 0 0 0 0 0 0 0 0 0 0 0 0 0 0 0 0 0
0 0 0 0 0 0 0 0 0 0 0 0 0 0 0 0 0 0 0 0 0 0 0 0 0 0 0 0 0 0 0 0 0 0 0 0 -161 -5 -104 -2 -4 -114 -77
0 0 0 0 0 0 0 0 0 0 0 0 0 0 0 0 0 0 0 0 0 0 0 0 0 0 0 0 0 0 -96 -74 -43 0 -90 -56 -63 -95 -115 -82 -104 -112 -97
0 0 0 0 0 -1 0 0 0 0 0 0 0 0 0 0 0 0 0 0 0 0 0 0 0 0 0 0 0 0 0 0 0 0 0 -98 -45 -111 -98 -98 -106 -39 0
0 0 0 0 0 0 0 0 0 0 0 0 0 0 0 0 0 0 0 0 0 0 0 0 0 0 0 0 0 0 0 0 0 0 0 0 0 0 0 0 0 0 0
0 0 0 0 0 0 0 0 0 0 0 0 0 0 0 0 0 0 0 0 0 0 0 0 0 0 0 0 0 0 0 0 0 0 0 0 0 0 0 0 0 0 0
0 0 0 0 0 0 0 0 0 0 0 0 0 0 0 0 0 0 0 0 0 0 0 0 0 0 0 0 0 0 0 0 0 0 0 0 0 0 0 0 0 0 0
Wind_Speed
10 9 10 10 10 8 9 7 8 7 9 9 10 10 10 9 8 7 7 8 8 7 5 7 6 5 4 4 3 2 3 3 3 1 0 2 2 4 4 4 4 4 3
12 8 11 7 8 9 8 8 9 9 9 10 10 10 10 9 8 9 8 7 8 7 7 7 6 5 6 5 4 4 4 3 3 4 1 2 3 3 4 5 4 4 4
9 9 8 9 10 10 10 9 9 10 10 10 11 11 10 10 9 8 9 9 7 7 7 7 8 7 6 4 4 4 3 3 2 4 3 2 2 2 4 4 4 5 5
9 9 9 10 10 10 10 10 10 10 11 11 10 9 9 9 8 8 8 7 6 6 6 6 7 8 8 7 6 5 5 5 5 6 5 2 2 2 3 5 4 3 3
10 10 9 10 10 12 13 12 11 10 10 10 10 8 9 8 7 8 7 6 6 6 5 6 5 6 8 8 6 6 7 5 5 6 5 3 2 4 5 2 3 3 4
11 12 13 11 13 13 13 12 12 10 10 10 9 10 9 5 10 10 8 6 5 5 6 6 5 6 7 11 9 10 10 10 9 5 3 6 5 4 5 5 6 4 3
12 14 15 14 14 13 13 13 12 11 10 10 8 9 8 7 5 7 8 5 5 5 5 5 5 3 6 6 5 8 6 5 5 6 10 7 6 6 8 8 5 5 3
10 14 13 13 13 13 13 12 12 10 10 8 8 8 8 5 6 8 8 6 4 4 5 6 6 5 5 8 9 8 7 5 4 3 6 8 6 8 8 5 6 7 4
11 12 14 15 15 14 14 14 10 12 9 7 7 8 9 6 6 8 8 5 5 4 4 5 6 6 8 9 9 10 8 4 5 5 8 10 10 10 9 8 7 8 3
12 12 13 15 16 15 16 15 7 10 10 8 10 8 7 7 6 7 7 6 6 4 4 4 5 7 9 11 8 11 9 5 7 7 6 7 6 7 11 7 7 8 4
14 14 13 14 15 15 14 12 12 11 12 10 10 7 7 6 5 6 8 5 5 5 5 3 3 8 10 9 8 7 5 9 8 8 7 6 6 5 3 4 6 8 6
15 15 15 13 11 11 16 12 12 12 11 9 9 7 5 5 4 5 7 7 6 6 6 4 5 8 10 11 8 12 14 10 7 6 6 5 6 5 4 3 4 4 3
13 14 15 15 13 13 14 13 11 9 9 8 7 5 4 3 4 8 8 9 9 6 5 7 11 11 11 10 12 12 8 6 5 6 5 3 4 4 5 4 3 4 4
20 13 14 14 12 11 10 9 9 9 8 7 6 6 4 4 4 4 5 7 10 8 10 5 9 11 10 8 6 5 4 5 6 6 5 5 5 4 4 2 2 2 2
16 13 13 12 12 11 9 5 8 5 8 10 8 6 6 4 3 5 6 5 6 6 8 5 5 5 6 5 4 5 4 5 6 5 5 5 4 4 2 3 3 3 2
14 11 10 10 9 9 10 9 16 8 11 10 10 7 3 9 10 10 10 12 13 9 4 6 5 6 6 5 4 4 4 4 4 5 5 5 5 4 4 2 2 2 2
12 12 10 11 9 9 9 10 8 9 16 14 10 10 10 11 12 12 12 10 8 7 6 5 5 5 5 4 4 4 3 3 4 4 5 4 4 4 4 3 3 4 4
12 14 10 8 9 8 8 9 8 8 8 5 13 10 12 13 13 11 10 7 4 5 5 5 5 4 4 4 4 4 4 4 5 5 4 4 4 5 3 3 3 3 3
12 9 9 8 7 9 9 9 8 9 8 8 6 9 9 12 9 6 4 4 4 4 5 4 4 5 3 3 4 3 4 4 3 4 3 4 4 3 2 3 3 6 4
9 15 11 8 8 9 8 8 9 9 9 8 8 5 3 5 3 3 4 3 3 3 3 4 3 4 3 4 4 3 3 4 3 2 2 3 3 3 3 4 4 4 5
10 8 13 10 9 9 9 9 9 9 9 8 7 5 7 6 6 8 7 7 7 6 6 6 6 5 5 2 2 2 3 3 4 3 3 3 3 3 4 5 5 5 6
10 9 9 10 10 9 10 10 10 10 10 9 8 4 8 8 8 8 8 8 7 7 6 7 6 7 6 6 4 3 1 2 2 0 2 3 4 4 3 5 4 3 5
10 11 11 10 10 11 10 9 10 10 10 9 8 8 9 8 8 8 9 8 8 9 8 8 8 8 7 7 6 6 5 5 4 3 2 3 4 4 3 2 2 4 5
10 11 12 11 9 11 10 10 10 10 11 10 10 10 10 9 10 11 10 9 9 10 9 9 9 11 8 9 7 7 6 5 5 6 8 7 8 7 8 8 8 8 6
9 10 11 12 10 10 11 10 11 11 11 11 11 11 10 10 10 10 9 8 9 10 12 10 10 14 17 18 17 17 14 14 13 9 9 11 12 11 9 8 8 9 11
10 10 10 10 10 11 10 11 11 10 11 10 10 10 10 11 10 10 9 10 10 11 12 10 14 19 17 15 17 18 18 18 15 13 11 11 12 11 10 11 14 9 10
Wind_Direction
256 236 223 216 204 180 179 181 177 167 164 168 161 159 167 163 159 155 160 157 152 150 152 157 165 146 150 155 157 149 140 131 144 112 102 121 80 76 84 99 139 116 120
249 229 216 203 175 175 177 171 167 164 162 160 151 154 160 158 157 155 156 153 151 160 158 158 165 154 155 164 167 167 168 151 131 144 138 114 82 68 87 92 96 102 113
224 211 196 187 177 177 159 158 152 150 152 148 152 157 156 161 167 163 150 154 160 163 160 167 168 163 160 166 170 162 147 154 145 145 132 92 97 110 90 68 74 75 70
209 186 183 179 169 153 141 145 146 155 150 151 156 150 149 150 147 146 146 152 150 155 166 174 171 177 172 172 170 167 153 142 144 135 107 103 111 108 101 120 90 53 70
188 166 171 148 142 137 145 149 144 147 145 144 134 138 141 148 149 147 143 140 151 168 173 185 187 184 177 173 158 164 151 134 140 129 134 134 123 146 143 121 107 108 63
164 154 151 139 144 145 143 137 134 124 126 128 139 142 142 129 131 137 138 150 162 165 182 188 188 187 164 172 161 159 162 151 155 145 143 150 148 123 131 137 137 132 120
154 150 143 147 148 143 139 134 127 130 131 130 127 123 109 108 111 144 147 146 158 177 179 179 181 172 163 165 148 132 125 68 152 155 160 160 152 156 145 158 150 140 109
159 139 135 137 136 136 135 131 124 122 121 117 111 105 114 93 121 143 145 135 139 158 173 171 162 158 163 158 153 146 151 148 148 146 168 153 135 155 156 153 133 105 87
139 137 139 136 134 139 134 126 117 110 106 99 105 110 118 105 127 146 122 117 117 126 140 146 153 151 153 154 145 139 135 110 36 110 117 121 137 144 134 133 146 148 133
135 135 134 135 134 137 123 112 100 104 106 103 99 94 102 109 90 128 119 122 126 124 103 99 106 131 149 146 162 146 139 146 137 121 103 84 117 150 148 152 162 154 130
129 129 134 119 126 116 108 113 113 110 104 101 109 107 98 95 82 119 125 132 142 137 131 126 100 112 120 136 133 136 130 138 127 123 123 124 114 136 114 142 166 159 156
130 131 112 120 121 119 116 116 111 108 106 113 109 97 88 92 86 95 111 110 128 134 135 111 108 119 124 122 111 125 126 126 125 126 125 129 136 144 136 124 116 101 62
134 120 128 118 121 121 118 115 108 115 121 118 121 125 121 108 85 73 82 107 96 102 106 100 123 112 100 84 115 124 126 117 117 119 120 114 134 129 121 109 97 101 75
119 139 121 117 117 115 111 116 122 127 124 129 139 140 126 113 117 122 113 100 89 87 101 97 88 86 86 109 115 98 99 123 132 127 122 110 118 136 140 136 119 143 128
130 119 116 115 107 89 68 88 126 115 142 152 155 140 138 140 152 140 127 119 113 118 120 106 97 101 103 98 94 105 111 124 129 130 136 133 132 136 133 156 148 158 167
118 120 121 115 107 108 107 85 42 69 117 113 119 125 81 116 121 110 104 113 121 135 95 112 115 121 122 121 118 113 108 117 129 132 135 141 142 145 140 140 138 141 142
115 115 108 112 116 122 127 124 110 52 66 54 75 100 105 117 103 104 108 108 122 108 118 114 116 122 125 128 135 136 136 138 136 141 144 144 143 144 147 160 166 183 196
107 104 112 116 121 127 128 125 130 126 117 83 41 71 81 96 100 97 109 110 90 74 102 117 127 124 132 137 149 148 139 147 159 157 150 147 157 165 157 175 187 174 184
113 110 110 108 107 112 117 129 125 114 109 111 109 69 71 87 102 76 93 105 110 120 133 126 138 152 138 140 151 157 156 158 159 159 148 157 170 157 177 185 193 214 209
100 107 101 112 118 120 119 119 112 112 120 115 104 110 115 97 71 55 54 67 78 88 115 122 142 151 150 161 164 160 157 163 169 159 163 166 174 186 191 212 212 222 219
112 110 118 114 119 120 119 122 124 121 116 108 113 115 116 98 64 63 57 47 44 43 46 55 50 48 32 61 142 151 157 162 180 186 198 178 179 201 220 229 238 236 250
117 120 118 120 123 121 122 121 118 118 117 119 113 99 99 80 74 67 60 53 49 47 41 57 61 55 47 42 28 19 132 121 93 176 213 235 235 241 235 246 248 249 268
123 122 119 116 117 117 111 115 115 116 116 114 112 95 84 80 76 73 70 63 59 55 50 52 58 54 45 41 38 34 58 57 42 22 50 67 48 12 329 325 14 65 57
127 127 121 121 122 119 112 110 113 106 109 101 93 89 87 86 85 79 75 70 67 64 61 59 57 57 47 46 41 40 35 17 39 40 53 63 61 51 61 52 47 44 50
113 118 119 117 114 111 100 95 97 96 96 99 98 94 93 91 89 85 79 74 72 68 63 58 56 55 54 54 53 50 39 41 46 45 60 62 62 63 68 72 68 62 51
87 96 102 104 102 106 105 101 96 94 93 93 94 94 96 94 93 91 84 80 78 71 70 61 61 59 59 56 51 46 41 45 46 37 56 63 65 49 40 42 49 48 50